SCP
0 0 0 0 0 0 0 0 0 0 -0 0 0 0 0 0 0 -0 0 -0 0 0
0 0 0 0 0 0 0 0 -0 -0 -0 -0 -0 0 0 0 -0 -0 -0 -0 0 0
0 0 0 1 0 0 0 0 -0 -0 -0 -0 -0 -0 0 0 -0 -0 -0 0 -0 -0
-0 -0 0 1 1 1 1 0 0 -0 -0 -0 -0 -0 0 -0 -0 -0 -0 0 0 0
-0 -0 -0 -0 0 1 1 1 0 0 -0 -0 -0 -0 0 -0 -0 -0 -0 -0 0 0
-0 -1 -1 -1 -0 -0 0 0 0 0 0 0 -0 0 0 0 -0 -0 -0 -0 0 -0
-0 -1 -1 -0 -1 -0 -0 0 0 1 0 0 0 0 0 0 0 0 0 0 0 0
-0 -0 -0 -1 -1 -1 -1 -0 0 1 1 0 0 0 0 0 0 0 0 0 0 0
0 0 -0 -1 -1 -1 -1 -0 -0 0 0 1 0 0 0 0 1 1 0 0 0 0
1 1 0 -0 -0 -1 -1 -0 -0 -0 0 0 0 0 0 0 1 1 1 1 1 1
0 0 1 1 1 -0 0 0 0 0 0 0 0 0 0 0 1 2 2 2 2 2
0 1 1 1 1 1 2 1 1 1 1 1 1 0 0 0 1 2 2 3 3 3
4 4 3 2 2 3 4 3 3 2 2 2 2 0 0 0 3 4 5 4 4 1
3 4 4 4 4 3 2 2 2 2 3 1 1 3 0 0 5 6 7 7 6 4
Wind_Speed_500mb
84 82 75 70 67 58 56 51 47 48 46 42 41 37 34 35 31 29 26 23 25 24
89 87 83 72 62 64 55 55 53 52 50 46 44 42 36 37 35 34 31 28 27 28
92 89 85 78 69 64 63 57 58 59 53 50 48 46 42 40 41 40 38 36 33 30
94 98 93 87 76 69 62 62 65 63 64 59 56 53 50 48 47 47 45 43 39 35
92 92 95 92 84 77 71 67 66 69 69 71 65 59 57 56 56 55 52 49 47 43
101 99 98 93 88 85 79 74 73 72 74 76 75 69 66 63 61 61 57 51 50 47
102 103 98 90 90 88 86 82 79 78 76 77 80 79 74 70 67 64 63 59 54 50
91 95 97 94 91 89 92 88 83 82 81 80 82 86 85 79 75 70 70 68 63 58
91 92 90 89 90 90 94 94 91 91 89 87 91 93 91 84 82 79 76 74 68 64
92 92 91 92 91 92 95 96 99 96 95 97 96 96 96 92 90 86 83 79 76 72
95 94 94 93 93 95 97 101 103 101 99 99 100 98 97 96 91 90 92 90 84 77
88 92 95 96 94 95 100 104 108 107 104 104 102 100 97 91 90 98 101 99 90 82
88 91 95 93 94 97 97 102 106 110 107 104 102 103 101 97 92 95 100 107 98 84
80 83 84 78 72 64 64 61 70 57 59 71 92 110 109 103 96 96 99 100 96 83
Wind_Direction_500mb
233 235 237 238 239 237 236 239 230 230 234 243 241 243 242 237 237 238 238 235 228 229
234 234 236 237 236 238 238 239 233 230 239 237 239 236 236 234 232 235 236 236 238 235
237 236 236 237 235 234 235 234 235 233 232 232 236 234 233 233 231 230 232 236 239 238
238 238 237 237 237 234 234 233 234 233 232 232 233 233 233 232 232 231 232 233 237 239
237 240 239 237 237 235 234 232 234 233 232 231 232 232 234 234 233 231 232 233 235 237
237 239 240 239 238 237 234 234 233 235 232 229 230 232 234 235 235 234 233 234 237 238
235 238 239 239 237 237 236 235 233 236 236 233 232 234 235 234 234 234 234 235 237 238
240 237 239 240 237 236 234 234 233 235 236 236 233 231 232 232 233 235 237 238 238 240
240 239 237 237 236 235 235 233 232 233 234 234 234 232 232 232 234 236 238 240 242 243
242 242 240 236 233 232 231 231 233 233 235 235 236 236 235 234 236 238 240 242 243 244
242 244 242 238 236 233 230 229 230 232 234 237 239 240 240 239 239 243 245 244 245 246
243 244 244 242 239 236 232 230 230 232 235 238 239 241 243 242 240 241 245 247 244 243
247 245 245 248 245 241 238 236 235 233 235 241 245 246 245 244 241 242 243 246 246 243
251 252 252 248 247 245 247 245 242 238 241 254 261 254 252 249 242 240 242 243 246 241
Wind_Speed_850mb
84 82 75 70 67 58 56 51 47 48 46 42 41 37 34 35 31 29 26 23 25 24
89 87 83 72 62 64 55 55 53 52 50 46 44 42 36 37 35 34 31 28 27 28
92 89 85 78 69 64 63 57 58 59 53 50 48 46 42 40 41 40 38 36 33 30
94 98 93 87 76 69 62 62 65 63 64 59 56 53 50 48 47 47 45 43 39 35
92 92 95 92 84 77 71 67 66 69 69 71 65 59 57 56 56 55 52 49 47 43
101 99 98 93 88 85 79 74 73 72 74 76 75 69 66 63 61 61 57 51 50 47
102 103 98 90 90 88 86 82 79 78 76 77 80 79 74 70 67 64 63 59 54 50
91 95 97 94 91 89 92 88 83 82 81 80 82 86 85 79 75 70 70 68 63 58
91 92 90 89 90 90 94 94 91 91 89 87 91 93 91 84 82 79 76 74 68 64
92 92 91 92 91 92 95 96 99 96 95 97 96 96 96 92 90 86 83 79 76 72
95 94 94 93 93 95 97 101 103 101 99 99 100 98 97 96 91 90 92 90 84 77
88 92 95 96 94 95 100 104 108 107 104 104 102 100 97 91 90 98 101 99 90 82
88 91 95 93 94 97 97 102 106 110 107 104 102 103 101 97 92 95 100 107 98 84
80 83 84 78 72 64 64 61 70 57 59 71 92 110 109 103 96 96 99 100 96 83
Wind_Direction_850mb
233 235 237 238 239 237 236 239 230 230 234 243 241 243 242 237 237 238 238 235 228 229
234 234 236 237 236 238 238 239 233 230 239 237 239 236 236 234 232 235 236 236 238 235
237 236 236 237 235 234 235 234 235 233 232 232 236 234 233 233 231 230 232 236 239 238
238 238 237 237 237 234 234 233 234 233 232 232 233 233 233 232 232 231 232 233 237 239
237 240 239 237 237 235 234 232 234 233 232 231 232 232 234 234 233 231 232 233 235 237
237 239 240 239 238 237 234 234 233 235 232 229 230 232 234 235 235 234 233 234 237 238
235 238 239 239 237 237 236 235 233 236 236 233 232 234 235 234 234 234 234 235 237 238
240 237 239 240 237 236 234 234 233 235 236 236 233 231 232 232 233 235 237 238 238 240
240 239 237 237 236 235 235 233 232 233 234 234 234 232 232 232 234 236 238 240 242 243
242 242 240 236 233 232 231 231 233 233 235 235 236 236 235 234 236 238 240 242 243 244
242 244 242 238 236 233 230 229 230 232 234 237 239 240 240 239 239 243 245 244 245 246
243 244 244 242 239 236 232 230 230 232 235 238 239 241 243 242 240 241 245 247 244 243
247 245 245 248 245 241 238 236 235 233 235 241 245 246 245 244 241 242 243 246 246 243
251 252 252 248 247 245 247 245 242 238 241 254 261 254 252 249 242 240 242 243 246 241